539  
ASUS43 KMPX 241510  
RWRMN  
WEATHER ROUNDUP FOR MINNESOTA  
NATIONAL WEATHER SERVICE TWIN CITIES/CHANHASSEN MN  
1000 AM CDT SUN OCT 24 2021  
 
NOTE: "FAIR" INDICATES FEW OR NO CLOUDS BELOW 12,000 FEET WITH NO  
SIGNIFICANT WEATHER AND/OR S TO VISIBILITY
. N/A MEANS  
CURRENT SKY AND/OR WEATHER CONDITIONS ARE NOT AVAILABLE.  
 
MNZ060>063-068>070-241600-  
TWIN CITIES METRO  
 
CITY SKY/WX TMP DP RH WIND PRES REMARKS
 
TWIN CITIES CLOUDY 43 31 62 E9 30.02R  
ST PAUL PTSUNNY 44 31 60 E8 30.03R  
CRYSTAL PTSUNNY 42 32 67 E3 30.02R  
LAKEVILLE CLOUDY 39 32 75 E6 30.00S  
EDEN PRAIRIE CLOUDY 43 31 62 E8 30.00R  
SOUTH ST PAUL PTSUNNY 42 32 67 E6 30.02R  
LAKE ELMO FAIR 39 32 75 E7 30.03R  

 
MNZ001>005-007-008-013>017-022>024-027-028-241600-  
NORTHWEST MINNESOTA  
 
CITY SKY/WX TMP DP RH WIND PRES REMARKS
 
BEMIDJI PTSUNNY 36 34 92 SE5 30.07R  
HALLOCK PTSUNNY 37 34 87 E12 30.08R  
ROSEAU MOSUNNY 39 36 87 SE8 30.08R  
WARROAD MOSUNNY 39 36 87 E15 30.09S  
THIEF RVR FALL MOSUNNY 36 34 92 E13 30.07R  
CROOKSTON PTSUNNY 36 30 80 SE8 30.06R  
FOSSTON MOSUNNY 37 32 81 E7 30.05R  
DETROIT LAKES PTSUNNY 37 32 81 SE15 30.01F  
MOORHEAD PTSUNNY 41 34 75 E9 30.01S  
PARK RAPIDS PTSUNNY 37 30 75 E8 30.03S  
MAHNOMEN FAIR 37 32 81 SE5 30.03S  

 
MNZ006-009>011-018-025>026-241600-  
NORTH CENTRAL MINNESOTA  
 
CITY SKY/WX TMP DP RH WIND PRES REMARKS
 
BAUDETTE CLOUDY 35 34 96 E9 30.10R WCI 28  
FLAG ISLAND CLOUDY 37 30 75 E7 30.10R  
INTL FALLS MOSUNNY 36 32 85 E8 30.10R  
WASKISH MOSUNNY 36 34 93 E8 30.07S  
BIG FORK CLOUDY 34 32 93 E5 30.13R WCI 30  
LONGVILLE MOSUNNY 37 34 87 E6 30.05S  
GRAND RAPIDS MOSUNNY 36 35 96 VRB6 30.09  
CRANE LAKE SUNNY 32 30 93 NE3 30.13S  
ORR N/A 32 32 100 CALM 30.08R FOG  
COOK CLOUDY 32 30 93 SE3 30.09R  

 
MNZ012-019>021-037-241600-  
NORTHEAST MINNESOTA  
 
CITY SKY/WX TMP DP RH WIND PRES REMARKS
 
DULUTH CLOUDY 39 34 82 E10 30.06R  
ELY CLOUDY 32 32 100 E3 30.09S  
HIBBING CLOUDY 32 31 96 E6 30.08R WCI 26  
EVELETH PTSUNNY 32 32 100 E3 30.09R  
DULUTH HARBOR LGT RAIN 43 39 87 NE9 30.08S  
TWO HARBORS SUNNY 41 34 75 NE6 30.08R  
GRAND MARAIS N/A 42 29 59 E9G17 30.12R  
G MARAIS ARPRT SUNNY 36 28 75 CALM 30.07R  

 
MNZ029>031-032-039>041-046>048-054>057-064-241600-  
WEST CENTRAL MINNESOTA  
 
CITY SKY/WX TMP DP RH WIND PRES REMARKS
 
FERGUS FALLS CLOUDY 41 30 65 E7 29.96R  
WHEATON DRIZZLE 41 36 81 E12 29.97S  
MORRIS CLOUDY 39 30 70 E13 29.96F  
ALEXANDRIA CLOUDY 39 31 72 E12 30.00R  
ELBOW LAKE CLOUDY 40 33 75 E9 29.98S  
WADENA PTSUNNY 32 30 93 E5 30.03R WCI 27  
GLENWOOD CLOUDY 37 32 81 NE10 29.99S  
APPLETON CLOUDY 43 34 70 E10 29.94S  
BENSON CLOUDY 39 32 75 E10G16 29.96F  
ORTONVILLE CLOUDY 41 34 75 E10G18 29.93S  
MADISON CLOUDY 45 37 76 E12 29.95R  
WILLMAR FAIR 39 30 70 E13 29.99S  

 
MNZ033>034-036-042>043-049>051-058-059-241600-  
CENTRAL MINNESOTA  
 
CITY SKY/WX TMP DP RH WIND PRES REMARKS
 
ST CLOUD CLOUDY 38 31 76 E8 30.00F  
SAUK CENTRE CLOUDY 37 31 80 E9 30.01R  
PAYNESVILLE CLOUDY 39 30 70 E9 30.00R  
AITKIN PTSUNNY 34 32 93 NE5 30.05S WCI 30  
PINE RIVER MOSUNNY 37 32 81 CALM 30.08S  
BRAINERD PTSUNNY 36 31 82 NE5 30.04S  
STAPLES PTSUNNY 37 34 87 CALM 30.03R  
LONG PRAIRIE CLOUDY 36 32 87 E7 30.02R  
LITTLE FALLS CLOUDY 36 32 87 E5 30.03R  
CAMP RIPLEY PTSUNNY 38 33 80 E8 30.02R  
LITCHFIELD CLOUDY 41 27 56 E8 29.99S  
BUFFALO CLOUDY 39 32 75 E9 30.00F  
HUTCHINSON PTSUNNY 42 34 73 E10 29.98F  

 
MNZ037-044-045-052-053-241600-  
EAST CENTRAL MINNESOTA  
 
CITY SKY/WX TMP DP RH WIND PRES REMARKS
 
PRINCETON N/A 39 34 81 E3 30.03S  
MORA N/A 36 32 87 CALM 30.06S  
CAMBRIDGE PTSUNNY 39 28 65 CALM 30.04R  
RUSH CITY PTSUNNY 35 32 87 NE7 30.04F WCI 29  
MOOSE LAKE MOSUNNY 36 32 87 NE3 30.05R  
HINCKLEY PTSUNNY 36 34 93 CALM 30.06R  
CLOQUET PTSUNNY 34 32 93 N3 30.05S  
MCGREGOR MOSUNNY 36 32 87 NE3 30.06F  

 
MNZ071>073-080-081-089-090-097-098-241600-  
SOUTHWEST MINNESOTA  
 
CITY SKY/WX TMP DP RH WIND PRES REMARKS
 
MONTEVIDEO CLOUDY 43 32 65 SE14 29.94S  
GRANITE FALLS CLOUDY 44 34 69 E13G20 29.94F  
CANBY CLOUDY 42 35 77 E9 29.93R  
MARSHALL CLOUDY 41 34 76 E12 29.91S  
REDWOOD FALLS CLOUDY 42 33 70 E12 29.92F  
OLIVIA CLOUDY 41 34 75 E12 29.94S  
PIPESTONE CLOUDY 43 34 70 E16G24 29.83R  
WINDOM CLOUDY 39 34 81 E14 29.88F  
WORTHINGTON CLOUDY 41 34 76 E17 29.85F  
JACKSON CLOUDY 39 32 75 E14 29.88F  
TRACY CLOUDY 40 32 74 E12 29.89F  
SLAYTON CLOUDY 39 32 76 E13G21 29.86F  

 
MNZ065>067-074>077-082>085-091>093-241600-  
SOUTH CENTRAL MINNESOTA  
 
CITY SKY/WX TMP DP RH WIND PRES REMARKS
 
MANKATO CLOUDY 41 33 73 E10 29.95F  
NEW ULM CLOUDY 39 32 75 E10 29.93F  
ST JAMES N/A 41 34 75 E16 29.91F  
FAIRMONT CLOUDY 41 35 79 E12 29.91S  
GLENCOE CLOUDY 42 32 69 E12G17 29.97F  
FARIBAULT CLOUDY 43 34 70 NE6 29.98S  
OWATONNA CLOUDY 41 34 75 E12 29.97R  
WASECA CLOUDY 39 32 75 E9 29.97R  
ALBERT LEA CLOUDY 41 36 81 NE13 29.92F  

 
MNZ078>079-086>088-094>096-241600-  
SOUTHEAST MINNESOTA  
 
CITY SKY/WX TMP DP RH WIND PRES REMARKS
 
ROCHESTER CLOUDY 39 33 79 E8 29.97S  
RED WING PTSUNNY 41 30 65 CALM 30.01R  
STANTON CLOUDY 40 35 80 NE7 29.99R  
DODGE CENTER N/A 39 32 75 E8 29.96S  
WINONA CLOUDY 37 36 93 CALM 30.01F  
AUSTIN CLOUDY 43 36 75 E13 29.91F  
PRESTON CLOUDY 38 32 79 NE8 29.96S  

 
ABBREVIATIONS USED IN REMARKS  
TC - TEMPERATURES IN CELSIUS  
WCI - WIND CHILL INDEX  
HX - HEAT INDEX  
VSB - VISIBILITY  

 
 
 
CLICK HERE TO GO TO PREVIOUS BULLETINS.

The Nexlab MN Page Main Text Page